Location: Elk Horn Observatory
(36.6768°N, 80.8309°W)
Time: 09:40:47
(UTC-05:00)

Tiangong 2 - Visible Passes

Search period start: 20 February 2019 00:00
Search period end: 02 March 2019 00:00
Orbit: 381 x 390 km, 42.8° (Epoch: 20 February)

Date Brightness Start Highest point End Pass type
(mag) Time Alt. Az. Time Alt. Az. Time Alt. Az.
20 Feb 2.2 19:25:31 10° WNW 19:28:29 39° SSW 19:29:56 24° SSE visible
21 Feb 4.1 20:04:48 10° WSW 20:05:39 11° SW 20:06:22 10° SSW visible
22 Feb 3.5 19:04:09 10° W 19:06:36 21° SW 19:09:02 10° SSE visible
24 Feb 4.4 18:43:50 10° SW 18:44:37 11° SW 18:45:24 10° SSW visible
